ONEWEB-0196 (48218 NORAD) Tracking and Keplerian Element Data

This shows tracking and keplerian element data for the satellite.

Feedback or suggestion? Click here.




ElementValue
Catalog48218
NameONEWEB-0196
Epoch Orbit178
Epoch Day136.75001157
Epoch Year2021
RAAN305.8063
Inclination87.4064
Eccentricity0.000618
Argument of Perigee183.9672
Mean Anonmoly82.9584
Mean Motion15.21455389
Decay Rate-0.01421275
L11 48218U 21031J 21136.75001157 -.01421275 00000-0 -69981-1 0 9997
L22 48218 87.4064 305.8063 0006180 183.9672 82.9584 15.21455389 1785

Live tracking and technical data element details for ONEWEB-0196 (NORAD 48218). ONEWEB-0196 can be tracked NOW for your location showing map with azimuth and elevation plus other details from your city location.

Track the satellite on the map from your city or location and see movement details for azimuth, elevation, latitude, longitude, range, height, and movement on the map or in text.







IsCatalogInMostPopularTable: catalog: 48218, numindb: 5
Update: records affected: 1



GetName: 48218 ONEWEB-0196

Hit Count: updated at: Mon, 17 May 2021 15:11:06 GMT